Home   Weather   Mamoutzou   Past weeks

Flag for Mayotte Past Weather in Mamoutzou, Mayotte — Yesterday and Last 2 Weeks

Now
86 °F

Passing clouds.


Feels Like: 95 °F
Forecast: 81 / 84 °F
Wind: 13 mph from Northeast

Location: Dzaoudzi / Pamanzi Mayotte

Current Time: Jan 20, 2017 at 4:58:04 pm

Latest Report: Jan 20, 2017 at 4:00 pm


Visibility: N/A

Pressure: 29.83 "Hg

Humidity: 70%

Dew Point: 75 °F

Location of MamoutzouLocation

Past Weather in Mamoutzou — Graph

°F

Mamoutzou Temperature Yesterday

Maximum temperature yesterday: 82 °F (at 5:30 pm)
Minimum temperature yesterday: 75 °F (at 1:00 am)
Average temperature yesterday: 79 °F

High & Low Weather Summary for the Past Weeks

 TemperatureHumidityPressure
High91 °F (Jan 6, 2:00 pm)94% (Jan 7, 11:30 pm)29.95 "Hg (Jan 7, 11:30 pm)
Low75 °F (Jan 11, 8:06 am)43% (Jan 6, 11:00 am)29.77 "Hg (Jan 7, 4:00 pm)
Average82 °F73%29.87 "Hg
* Reported Jan 5 3:05 pm — Jan 20 3:30 pm, Mamoutzou, Weather by CustomWeather, © 2017

Note: Actual official high and low records may vary slightly from our data, if they occured in-between our weather recording intervals... More about our weather records

Advertising

Mamoutzou Weather History for the Previous 24 Hours

Scroll right to see more
 ConditionsComfort  
Time TempWeatherWind HumidityBarometerVisibility
3:30 pm
Fri, Jan 20
88 °FScattered clouds.12 mph66%29.83 "HgN/A
3:00 pm88 °FScattered clouds.13 mph66%29.83 "HgN/A
2:30 pm88 °FScattered clouds.14 mph66%29.86 "HgN/A
2:00 pm88 °FScattered clouds.14 mph66%29.86 "HgN/A
1:30 pm88 °FPassing clouds.13 mph62%29.86 "HgN/A
1:00 pm88 °FPassing clouds.13 mph62%29.86 "HgN/A
12:00 pm88 °FPassing clouds.14 mph62%29.89 "HgN/A
11:30 am86 °FScattered clouds.12 mph66%29.89 "HgN/A
11:00 am86 °FPassing clouds.14 mph66%29.92 "HgN/A
10:30 am86 °FPassing clouds.14 mph70%29.92 "HgN/A
10:00 am86 °FPassing clouds.14 mph70%29.92 "HgN/A
9:36 am86 °FScattered clouds.14 mph66%29.92 "HgN/A
9:00 am86 °FScattered clouds.9 mph66%29.92 "HgN/A
8:30 am86 °FScattered clouds.13 mph66%29.92 "HgN/A
8:00 am84 °FScattered clouds.12 mph70%29.92 "HgN/A
7:34 am84 °FScattered clouds.12 mph70%29.92 "HgN/A
7:08 am82 °FScattered clouds.10 mph74%29.92 "HgN/A
6:38 am81 °FScattered clouds.8 mph79%29.89 "HgN/A
6:00 am81 °FScattered clouds.9 mph79%29.89 "HgN/A
5:30 am81 °FPassing clouds.12 mph74%29.89 "HgN/A
5:00 am81 °FPartly cloudy.10 mph74%29.86 "HgN/A
4:30 am81 °FPassing clouds.9 mph74%29.86 "HgN/A
4:00 am81 °FPassing clouds.8 mph74%29.86 "HgN/A
3:30 am81 °FPassing clouds.10 mph74%29.86 "HgN/A
3:00 am81 °FPassing clouds.9 mph74%29.86 "HgN/A
2:30 am81 °FPassing clouds.9 mph79%29.86 "HgN/A
2:00 am81 °FPassing clouds.9 mph79%29.86 "HgN/A
1:30 am81 °FWarm.9 mph74%29.86 "HgN/A
1:00 am81 °FPassing clouds.6 mph74%29.89 "HgN/A
12:30 am81 °FPassing clouds.8 mph74%29.89 "HgN/A
12:00 am79 °FPassing clouds.6 mph79%29.89 "HgN/A
11:30 pm
Thu, Jan 19
79 °FWarm.3 mph79%29.92 "HgN/A
11:00 pm81 °FWarm.3 mph74%29.92 "HgN/A
10:30 pm79 °FWarm.7 mph79%29.92 "HgN/A
10:00 pm81 °FPassing clouds.6 mph79%29.92 "HgN/A
9:30 pm81 °FPartly cloudy.8 mph79%29.92 "HgN/A
9:00 pm81 °FPassing clouds.6 mph79%29.92 "HgN/A
8:30 pm81 °FPassing clouds.7 mph74%29.89 "HgN/A
8:00 pm81 °FMostly cloudy.12 mph79%29.89 "HgN/A
7:30 pm81 °FPassing clouds.14 mph74%29.89 "HgN/A
7:00 pm81 °FOvercast.13 mph79%29.89 "HgN/A
6:30 pm81 °FMostly cloudy.9 mph74%29.89 "HgN/A
6:00 pm81 °FMore clouds than sun.8 mph74%29.89 "HgN/A
5:30 pm82 °FOvercast.14 mph70%29.86 "HgN/A
5:00 pm81 °FMore clouds than sun.13 mph79%29.86 "HgN/A
4:30 pm81 °FMore clouds than sun.13 mph79%29.86 "HgN/A
4:00 pm81 °FMore clouds than sun.13 mph79%29.86 "HgN/A
Weather by CustomWeather, © 2017

See weather overviewHow to use our weather pages